Back to catalog

STARLINK-5210

AliveCommunicationsVLEO
NORAD 54082·PAYLOAD·🇺🇸 United States

Launched Oct 20, 2022 from Cape Canaveral Space Force Station

Loading…

Next Passes (next 24 hours)

TLE

FreshSource: CelesTrak SupGP

Epoch: Sep 14, 2026, 14:37 UTC

1 54082C 22136AH  26257.60951389  .00492740  00000+0  26631-1 0  2577
2 54082  53.1608 205.5097 0001335  93.5876 242.9058 15.13943265    12

Track STARLINK-5210 in real time with AllMySat

Download on the App Store